SAS479 ESSA-EKCH

Flight info

Callsign SAS479
Flight time 0h 58m
Altitude 38000
Route PETEV N872 ELPAX DCT TOKSI N872 ERNOV
Aircraft A20N/M-SDE2E3FGHIRWXY/LB1

Departure

Time 2026-04-26 12:02
Airport Stockholm-Arlanda Airport (ESSA)

Arrival

Time 2026-04-26 13:01
Airport Copenhagen Kastrup Airport (EKCH)
Time Latitude Longitude Altitude Speed Heading
2026-04-26 11:27 59.65434 17.93504 110 ft 0 kts 76°
2026-04-26 11:48 59.65428 17.93462 108 ft 4 kts 73°
2026-04-26 11:48 59.65419 17.93412 109 ft 4 kts 62°
2026-04-26 11:49 59.65404 17.93375 109 ft 4 kts 10°
2026-04-26 11:49 59.65396 17.93373 109 ft 1 kts 345°
2026-04-26 11:53 59.65399 17.93371 109 ft 2 kts 345°
2026-04-26 11:53 59.65426 17.93357 110 ft 9 kts 345°
2026-04-26 11:54 59.65595 17.93284 109 ft 14 kts 310°
2026-04-26 11:54 59.65591 17.93096 109 ft 14 kts 257°
2026-04-26 11:54 59.65565 17.92891 109 ft 16 kts 256°
2026-04-26 11:54 59.65536 17.92655 106 ft 19 kts 254°
2026-04-26 11:55 59.65467 17.92422 104 ft 21 kts 223°
2026-04-26 11:55 59.65349 17.92278 103 ft 19 kts 179°
2026-04-26 11:55 59.65215 17.92224 107 ft 20 kts 192°
2026-04-26 11:55 59.65066 17.92167 106 ft 23 kts 191°
2026-04-26 11:56 59.64897 17.92107 106 ft 26 kts 191°
2026-04-26 11:56 59.64715 17.92041 107 ft 27 kts 191°
2026-04-26 11:56 59.64542 17.91980 110 ft 20 kts 190°
2026-04-26 11:56 59.64426 17.91941 111 ft 13 kts 189°
2026-04-26 11:57 59.64407 17.91868 111 ft 0 kts 288°
2026-04-26 12:00 59.64408 17.91863 110 ft 2 kts 288°
2026-04-26 12:00 59.64413 17.91793 109 ft 8 kts 277°
2026-04-26 12:00 59.64426 17.91665 106 ft 10 kts 285°
2026-04-26 12:01 59.64475 17.91593 108 ft 6 kts
2026-04-26 12:01 59.64478 17.91594 108 ft 0 kts
2026-04-26 12:01 59.64500 17.91602 109 ft 20 kts 10°
2026-04-26 12:01 59.64877 17.91733 106 ft 88 kts 10°
2026-04-26 12:02 59.65661 17.92013 111 ft 138 kts
2026-04-26 12:02 59.66281 17.92280 551 ft 126 kts
2026-04-26 12:02 59.67445 17.92738 1258 ft 136 kts
2026-04-26 12:02 59.68437 17.93061 1824 ft 153 kts
2026-04-26 12:03 59.69547 17.93360 2443 ft 169 kts 353°
2026-04-26 12:03 59.70743 17.92868 3246 ft 181 kts 336°
2026-04-26 12:03 59.71820 17.91482 3937 ft 194 kts 315°
2026-04-26 12:03 59.72421 17.89136 4041 ft 195 kts 284°
2026-04-26 12:04 59.72285 17.86416 4145 ft 207 kts 254°
2026-04-26 12:04 59.71445 17.84005 4273 ft 219 kts 235°
2026-04-26 12:04 59.70437 17.81729 4379 ft 220 kts 235°
2026-04-26 12:04 59.69426 17.79411 4727 ft 223 kts 238°
2026-04-26 12:05 59.68630 17.76856 5671 ft 212 kts 253°
2026-04-26 12:05 59.68164 17.74115 6610 ft 214 kts 260°
2026-04-26 12:05 59.67713 17.71155 7146 ft 236 kts 259°
2026-04-26 12:05 59.67169 17.67927 7701 ft 261 kts 249°
2026-04-26 12:06 59.66129 17.65318 8417 ft 280 kts 223°
2026-04-26 12:06 59.64364 17.63542 9466 ft 290 kts 202°
2026-04-26 12:06 59.62518 17.61959 10381 ft 291 kts 218°
2026-04-26 12:06 59.60836 17.59484 10790 ft 313 kts 223°
2026-04-26 12:07 59.59079 17.56686 11131 ft 336 kts 224°
2026-04-26 12:07 59.57248 17.53708 11845 ft 345 kts 224°
2026-04-26 12:07 59.55372 17.50655 12604 ft 354 kts 225°
2026-04-26 12:07 59.53453 17.47536 13385 ft 362 kts 225°
2026-04-26 12:08 59.51489 17.44355 14124 ft 369 kts 226°
2026-04-26 12:08 59.49487 17.41126 14842 ft 374 kts 226°
2026-04-26 12:08 59.47456 17.37861 15587 ft 380 kts 227°
2026-04-26 12:08 59.45397 17.34557 16306 ft 385 kts 227°
2026-04-26 12:09 59.43304 17.31203 17028 ft 391 kts 227°
2026-04-26 12:09 59.41184 17.27810 17733 ft 396 kts 228°
2026-04-26 12:09 59.39032 17.24370 18397 ft 402 kts 229°
2026-04-26 12:09 59.36852 17.20891 19037 ft 405 kts 229°
2026-04-26 12:10 59.34656 17.17394 19691 ft 409 kts 229°
2026-04-26 12:10 59.32438 17.13866 20276 ft 412 kts 229°
2026-04-26 12:10 59.30204 17.10317 20936 ft 415 kts 229°
2026-04-26 12:10 59.27948 17.06739 21563 ft 419 kts 229°
2026-04-26 12:11 59.25671 17.03134 22177 ft 423 kts 229°
2026-04-26 12:11 59.23372 16.99501 22789 ft 427 kts 229°
2026-04-26 12:11 59.21051 16.95838 23399 ft 431 kts 229°
2026-04-26 12:11 59.18711 16.92153 23943 ft 435 kts 229°
2026-04-26 12:12 59.16347 16.88437 24471 ft 437 kts 229°
2026-04-26 12:12 59.13974 16.84709 24988 ft 438 kts 228°
2026-04-26 12:12 59.11598 16.80987 25552 ft 440 kts 228°
2026-04-26 12:12 59.10017 16.78512 25840 ft 442 kts 228°
2026-04-26 12:13 59.06793 16.73475 26481 ft 445 kts 228°
2026-04-26 12:13 59.04370 16.69703 26960 ft 448 kts 227°
2026-04-26 12:13 59.01931 16.65909 27404 ft 451 kts 227°
2026-04-26 12:13 58.99477 16.62100 27841 ft 454 kts 227°
2026-04-26 12:14 58.97003 16.58267 28276 ft 456 kts 227°
2026-04-26 12:14 58.94550 16.54475 28682 ft 459 kts 227°
2026-04-26 12:14 58.92046 16.50612 29084 ft 462 kts 227°
2026-04-26 12:14 58.89528 16.46735 29476 ft 464 kts 227°
2026-04-26 12:15 58.86993 16.42840 29854 ft 467 kts 227°
2026-04-26 12:15 58.84444 16.38930 30222 ft 469 kts 227°
2026-04-26 12:15 58.81877 16.35006 30474 ft 473 kts 228°
2026-04-26 12:15 58.79293 16.31060 30817 ft 475 kts 228°
2026-04-26 12:16 58.76696 16.27099 31140 ft 477 kts 228°
2026-04-26 12:16 58.74094 16.23139 31561 ft 477 kts 228°
2026-04-26 12:16 58.71495 16.19196 32004 ft 475 kts 228°
2026-04-26 12:16 58.68922 16.15311 32852 ft 462 kts 228°
2026-04-26 12:17 58.66442 16.11591 34094 ft 441 kts 228°
2026-04-26 12:17 58.64085 16.08060 35143 ft 419 kts 228°
2026-04-26 12:17 58.61828 16.04666 35858 ft 409 kts 228°
2026-04-26 12:18 58.57315 15.97809 35984 ft 419 kts 228°
2026-04-26 12:18 58.52666 15.90802 36118 ft 431 kts 227°
2026-04-26 12:19 58.47875 15.83644 36219 ft 442 kts 227°
2026-04-26 12:19 58.42959 15.76332 36326 ft 453 kts 227°
2026-04-26 12:20 58.37923 15.68869 36446 ft 462 kts 226°
2026-04-26 12:20 58.35384 15.65122 36646 ft 462 kts 226°
2026-04-26 12:20 58.33705 15.62648 36861 ft 461 kts 226°
2026-04-26 12:20 58.31171 15.58919 37126 ft 460 kts 226°
2026-04-26 12:21 58.28636 15.55192 37348 ft 461 kts 226°
2026-04-26 12:21 58.26099 15.51467 37577 ft 461 kts 226°
2026-04-26 12:21 58.23561 15.47746 37814 ft 461 kts 225°
2026-04-26 12:21 58.21026 15.44038 38039 ft 461 kts 225°
2026-04-26 12:22 58.18485 15.40327 38177 ft 461 kts 225°
2026-04-26 12:22 58.13407 15.32935 38183 ft 459 kts 225°
2026-04-26 12:23 58.08342 15.25571 38187 ft 458 kts 226°
2026-04-26 12:23 58.03347 15.18113 38185 ft 458 kts 226°
2026-04-26 12:23 58.00854 15.14371 38005 ft 458 kts 226°
2026-04-26 12:24 57.98361 15.10643 37729 ft 457 kts 226°
2026-04-26 12:24 57.95867 15.06932 37456 ft 456 kts 226°
2026-04-26 12:24 57.93375 15.03234 37195 ft 457 kts 226°
2026-04-26 12:25 57.88376 14.95839 36678 ft 457 kts 227°
2026-04-26 12:25 57.85908 14.92201 36419 ft 457 kts 227°
2026-04-26 12:25 57.83408 14.88522 36171 ft 457 kts 227°
2026-04-26 12:25 57.80904 14.84844 35922 ft 457 kts 227°
2026-04-26 12:26 57.78397 14.81166 35672 ft 457 kts 227°
2026-04-26 12:26 57.75891 14.77498 35424 ft 457 kts 227°
2026-04-26 12:26 57.73383 14.73835 35182 ft 458 kts 227°
2026-04-26 12:26 57.70873 14.70174 34939 ft 458 kts 227°
2026-04-26 12:27 57.68362 14.66519 34694 ft 457 kts 227°
2026-04-26 12:27 57.65853 14.62872 34427 ft 457 kts 227°
2026-04-26 12:27 57.63351 14.59244 34152 ft 454 kts 227°
2026-04-26 12:27 57.60861 14.55637 33876 ft 452 kts 227°
2026-04-26 12:28 57.58375 14.52041 33599 ft 453 kts 227°
2026-04-26 12:28 57.55880 14.48437 33329 ft 455 kts 227°
2026-04-26 12:28 57.53373 14.44823 33059 ft 456 kts 227°
2026-04-26 12:28 57.50863 14.41213 32786 ft 456 kts 227°
2026-04-26 12:29 57.48349 14.37605 32529 ft 457 kts 227°
2026-04-26 12:29 57.45829 14.33992 32262 ft 458 kts 226°
2026-04-26 12:29 57.40807 14.26816 31756 ft 460 kts 226°
2026-04-26 12:30 57.38271 14.23200 31465 ft 460 kts 226°
2026-04-26 12:30 57.35738 14.19598 31209 ft 459 kts 226°
2026-04-26 12:30 57.33205 14.16000 30962 ft 460 kts 226°
2026-04-26 12:31 57.28134 14.08821 30470 ft 457 kts 226°
2026-04-26 12:31 57.25611 14.05259 30231 ft 456 kts 226°
2026-04-26 12:31 57.23097 14.01715 29950 ft 454 kts 226°
2026-04-26 12:31 57.20593 13.98190 29659 ft 452 kts 226°
2026-04-26 12:32 57.18095 13.94679 29378 ft 450 kts 226°
2026-04-26 12:32 57.15606 13.91186 29094 ft 449 kts 226°
2026-04-26 12:32 57.10666 13.84275 28518 ft 444 kts 226°
2026-04-26 12:33 57.08213 13.80852 28250 ft 443 kts 226°
2026-04-26 12:33 57.05765 13.77441 27982 ft 441 kts 226°
2026-04-26 12:33 57.03322 13.74043 27716 ft 439 kts 226°
2026-04-26 12:33 57.00889 13.70664 27449 ft 438 kts 226°
2026-04-26 12:34 56.98462 13.67299 27187 ft 437 kts 226°
2026-04-26 12:34 56.96042 13.63949 26938 ft 436 kts 226°
2026-04-26 12:34 56.93631 13.60616 26616 ft 432 kts 226°
2026-04-26 12:34 56.91231 13.57300 25877 ft 434 kts 226°
2026-04-26 12:35 56.88811 13.53956 25024 ft 437 kts 225°
2026-04-26 12:35 56.86371 13.50593 24134 ft 441 kts 225°
2026-04-26 12:35 56.83923 13.47237 23449 ft 437 kts 225°
2026-04-26 12:35 56.81516 13.43953 23027 ft 426 kts 225°
2026-04-26 12:36 56.79177 13.40772 22725 ft 413 kts 225°
2026-04-26 12:36 56.76877 13.37634 21832 ft 415 kts 225°
2026-04-26 12:36 56.74550 13.34439 20761 ft 423 kts 225°
2026-04-26 12:36 56.72199 13.31225 20012 ft 422 kts 225°
2026-04-26 12:37 56.69859 13.28045 19361 ft 418 kts 225°
2026-04-26 12:37 56.67533 13.24894 18710 ft 415 kts 225°
2026-04-26 12:37 56.65234 13.21782 18129 ft 408 kts 224°
2026-04-26 12:37 56.62973 13.18730 17564 ft 401 kts 224°
2026-04-26 12:38 56.60752 13.15733 17046 ft 395 kts 224°
2026-04-26 12:38 56.58563 13.12779 16513 ft 389 kts 224°
2026-04-26 12:38 56.56431 13.09905 16001 ft 385 kts 224°
2026-04-26 12:38 56.54296 13.07031 15481 ft 380 kts 224°
2026-04-26 12:39 56.52182 13.04187 14966 ft 376 kts 224°
2026-04-26 12:39 56.50089 13.01377 14459 ft 373 kts 224°
2026-04-26 12:39 56.48011 12.98592 13946 ft 370 kts 223°
2026-04-26 12:39 56.47080 12.97345 13706 ft 368 kts 223°
2026-04-26 12:42 56.46190 12.96154 13491 ft 366 kts 223°
2026-04-26 12:42 56.44159 12.93441 12995 ft 361 kts 223°
2026-04-26 12:42 56.42152 12.90764 12498 ft 356 kts 223°
2026-04-26 12:42 56.40172 12.88123 12027 ft 352 kts 222°
2026-04-26 12:43 56.38217 12.85521 11671 ft 345 kts 222°
2026-04-26 12:43 56.36320 12.83010 11532 ft 331 kts 222°
2026-04-26 12:43 56.34500 12.80605 11402 ft 318 kts 222°
2026-04-26 12:43 56.32753 12.78296 11214 ft 307 kts 223°
2026-04-26 12:44 56.31042 12.76027 10919 ft 302 kts 223°
2026-04-26 12:44 56.29378 12.73823 10796 ft 296 kts 223°
2026-04-26 12:44 56.27705 12.71602 10687 ft 300 kts 223°
2026-04-26 12:44 56.26052 12.69414 10484 ft 297 kts 222°
2026-04-26 12:45 56.24395 12.67230 10262 ft 295 kts 222°
2026-04-26 12:45 56.22744 12.65055 10052 ft 293 kts 222°
2026-04-26 12:45 56.21102 12.62895 9837 ft 292 kts 222°
2026-04-26 12:45 56.19466 12.60745 9622 ft 291 kts 221°
2026-04-26 12:46 56.17811 12.58676 9425 ft 292 kts 213°
2026-04-26 12:46 56.15882 12.57466 9220 ft 298 kts 192°
2026-04-26 12:46 56.13799 12.57347 9005 ft 301 kts 182°
2026-04-26 12:46 56.11719 12.57391 8794 ft 298 kts 182°
2026-04-26 12:47 56.09653 12.57429 8573 ft 296 kts 182°
2026-04-26 12:47 56.07599 12.57459 8372 ft 294 kts 182°
2026-04-26 12:47 56.05555 12.57484 8163 ft 292 kts 182°
2026-04-26 12:47 56.03528 12.57504 7956 ft 290 kts 182°
2026-04-26 12:48 56.01510 12.57525 7749 ft 290 kts 182°
2026-04-26 12:48 55.99500 12.57544 7539 ft 287 kts 182°
2026-04-26 12:48 55.97505 12.57563 7335 ft 287 kts 182°
2026-04-26 12:48 55.95516 12.57584 7128 ft 285 kts 182°
2026-04-26 12:49 55.93542 12.57604 6934 ft 283 kts 182°
2026-04-26 12:49 55.91579 12.57625 6735 ft 281 kts 182°
2026-04-26 12:49 55.89622 12.57645 6525 ft 280 kts 182°
2026-04-26 12:49 55.87683 12.57558 6329 ft 277 kts 189°
2026-04-26 12:50 55.85815 12.56849 6133 ft 273 kts 201°
2026-04-26 12:50 55.84041 12.55682 5938 ft 271 kts 204°
2026-04-26 12:50 55.82277 12.54518 5746 ft 270 kts 203°
2026-04-26 12:50 55.80514 12.53375 5556 ft 270 kts 203°
2026-04-26 12:51 55.78761 12.52242 5365 ft 267 kts 204°
2026-04-26 12:51 55.77008 12.51110 5071 ft 269 kts 203°
2026-04-26 12:51 55.75247 12.49976 4747 ft 267 kts 203°
2026-04-26 12:51 55.73516 12.48865 4613 ft 267 kts 204°
2026-04-26 12:52 55.71776 12.47738 4467 ft 263 kts 203°
2026-04-26 12:52 55.70055 12.46627 4338 ft 265 kts 203°
2026-04-26 12:52 55.68329 12.45515 4190 ft 263 kts 203°
2026-04-26 12:52 55.66612 12.44411 4045 ft 263 kts 203°
2026-04-26 12:53 55.64898 12.43311 3946 ft 261 kts 203°
2026-04-26 12:53 55.63187 12.42213 3854 ft 263 kts 202°
2026-04-26 12:53 55.61465 12.41109 3747 ft 263 kts 204°
2026-04-26 12:53 55.59840 12.39709 3668 ft 258 kts 216°
2026-04-26 12:54 55.58432 12.37766 3568 ft 256 kts 225°
2026-04-26 12:54 55.57095 12.35677 3474 ft 257 kts 224°
2026-04-26 12:54 55.55759 12.33610 3389 ft 254 kts 224°
2026-04-26 12:54 55.54427 12.31568 3295 ft 253 kts 224°
2026-04-26 12:55 55.53096 12.29532 3211 ft 254 kts 224°
2026-04-26 12:55 55.51756 12.27528 3108 ft 253 kts 218°
2026-04-26 12:55 55.50115 12.26393 3053 ft 260 kts 189°
2026-04-26 12:55 55.48313 12.26788 3003 ft 267 kts 160°
2026-04-26 12:56 55.46805 12.28607 2999 ft 269 kts 135°
2026-04-26 12:56 55.45601 12.31118 2999 ft 270 kts 127°
2026-04-26 12:56 55.44678 12.33993 2993 ft 270 kts 104°
2026-04-26 12:56 55.44579 12.37233 2992 ft 264 kts 75°
2026-04-26 12:57 55.45380 12.39933 2988 ft 240 kts 39°
2026-04-26 12:57 55.46676 12.41595 2990 ft 223 kts 29°
2026-04-26 12:57 55.47908 12.43110 2984 ft 211 kts 33°
2026-04-26 12:58 55.50209 12.46463 2467 ft 215 kts 37°
2026-04-26 12:58 55.51333 12.48189 2157 ft 214 kts 37°
2026-04-26 12:58 55.52449 12.49908 1855 ft 212 kts 37°
2026-04-26 12:58 55.53560 12.51617 1557 ft 211 kts 37°
2026-04-26 12:59 55.54655 12.53307 1261 ft 206 kts 37°
2026-04-26 12:59 55.55674 12.54884 1039 ft 179 kts 37°
2026-04-26 12:59 55.56541 12.56223 766 ft 154 kts 37°
2026-04-26 12:59 55.57303 12.57399 561 ft 138 kts 36°
2026-04-26 13:00 55.58005 12.58478 379 ft 135 kts 36°
2026-04-26 13:00 55.58709 12.59565 197 ft 134 kts 36°
2026-04-26 13:00 55.59410 12.60657 48 ft 132 kts 36°
2026-04-26 13:00 55.60041 12.61614 26 ft 95 kts 40°
2026-04-26 13:01 55.60308 12.62035 18 ft 9 kts 42°
2026-04-26 13:01 55.60310 12.62039 17 ft 0 kts 42°
2026-04-26 13:01 55.60389 12.62151 18 ft 23 kts 38°
2026-04-26 13:01 55.60529 12.62294 22 ft 24 kts 19°
2026-04-26 13:02 55.60687 12.62356 25 ft 24 kts 10°
2026-04-26 13:02 55.60843 12.62484 24 ft 26 kts 39°
2026-04-26 13:02 55.60990 12.62704 19 ft 29 kts 40°
2026-04-26 13:02 55.61142 12.62943 21 ft 29 kts 41°
2026-04-26 13:03 55.61294 12.63179 25 ft 30 kts 42°
2026-04-26 13:03 55.61455 12.63427 19 ft 31 kts 41°
2026-04-26 13:03 55.61626 12.63690 18 ft 33 kts 40°
2026-04-26 13:03 55.61796 12.63952 20 ft 33 kts 40°
2026-04-26 13:04 55.61941 12.64193 20 ft 24 kts 75°
2026-04-26 13:04 55.61971 12.64476 20 ft 24 kts 51°
2026-04-26 13:04 55.62115 12.64658 24 ft 25 kts 32°
2026-04-26 13:04 55.62258 12.64802 27 ft 16 kts 353°
2026-04-26 13:05 55.62330 12.64786 24 ft 12 kts 359°
2026-04-26 13:05 55.62424 12.64776 23 ft 16 kts 358°
2026-04-26 13:05 55.62545 12.64771 20 ft 19 kts 359°
2026-04-26 13:05 55.62668 12.64789 19 ft 9 kts
2026-04-26 13:06 55.62711 12.64726 19 ft 0 kts 287°
2026-04-26 13:06 55.62712 12.64725 19 ft 0 kts 300°
2026-04-26 13:06 55.62723 12.64709 19 ft 5 kts 318°
2026-04-26 13:07 55.62742 12.64649 20 ft 8 kts 284°
2026-04-26 13:07 55.62749 12.64594 20 ft 0 kts 282°